Home > Weather > Idaho Falls > Past weeks

Flag for U.S.A. Weather for the Past 2 Weeks in Idaho Falls, Idaho, U.S.A.

Now
16 °F

Ice fog.


Feels Like: 7 °F
Forecast: 16 / 30 °F
Wind: 6 mph from Northeast

Location: Fanning Field

Current Time: Feb 9, 2016 at 3:55:48 AM

Latest Report: Feb 9, 2016 at 2:53 AM


Visibility: 0 mi

Pressure: 30.78 "Hg (25.58 "Hg at 1429m altitude)

Humidity: 87%

Dew point: 13 °F

Location of Idaho FallsLocation

Historic Weather in Idaho Falls — Graph

°F

Idaho Falls Temperature Yesterday

Maximum temperature yesterday: 27 °F (at 12:53 PM)
Minimum temperature yesterday: 16 °F (at 7:53 PM)
Average temperature yesterday: 22 °F

High & Low Weather Summary for the Past Weeks

 TemperatureHumidityPressure
High38 °F (Jan 29, 7:53 PM)100% (Jan 29, 11:53 PM)30.89 "Hg (Jan 29, 11:53 PM)
Low2 °F (Jan 28, 8:53 AM)64% (Feb 1, 6:53 PM)29.74 "Hg (Jan 29, 7:53 PM)
Average18 °F87%30.40 "Hg
* Reported Jan 25 2:53 AM — Feb 9 2:53 AM, Idaho Falls, Weather by CustomWeather, © 2016

Note: Actual official high and low records may vary slightly from our data, if they occured in-between our weather recording intervals... More about our weather records

Advertising

Idaho Falls Weather History for the Previous 24 Hours

 ConditionsComfort  
Time TempWeatherWind HumidityBarometerVisibility
2:53 AM
Tue, Feb 9
16 °FIce fog.6 mph87%30.78 "Hg0 mi
1:53 AM18 °FIce fog.3 mph88%30.76 "Hg0 mi
1:00 AM18 °FIce fog.No wind88%30.63 "Hg0 mi
11:53 PM
Mon, Feb 8
18 °FIce fog.No wind92%30.79 "Hg0 mi
10:53 PM17 °FIce fog.No wind92%30.80 "Hg0 mi
9:53 PM16 °FIce fog.No wind92%30.81 "Hg0 mi
8:53 PM18 °FIce fog.5 mph88%30.80 "Hg0 mi
7:53 PM16 °FIce fog.3 mph87%30.81 "Hg0 mi
6:53 PM18 °FIce fog.3 mph92%30.81 "Hg0 mi
5:55 PM23 °FIce fog.7 mph92%30.65 "Hg2 mi
4:53 PM27 °FLow clouds.3 mph89%30.79 "Hg6 mi
3:53 PM27 °FPartly sunny.5 mph92%30.79 "Hg6 mi
2:53 PM27 °FLow clouds.6 mph89%30.81 "Hg6 mi
1:53 PM27 °FMostly cloudy.3 mph89%30.82 "Hg6 mi
12:53 PM27 °FCloudy.5 mph92%30.83 "Hg5 mi
11:53 AM26 °FIce fog.6 mph92%30.86 "Hg3 mi
10:53 AM24 °FIce fog.7 mph91%30.88 "Hg2 mi
9:53 AM23 °FIce fog.No wind92%30.89 "Hg2 mi
8:55 AM22 °FIce fog.7 mph92%30.74 "Hg1 mi
7:53 AM22 °FIce fog.6 mph92%30.88 "Hg1 mi
6:53 AM22 °FIce fog.8 mph92%30.86 "Hg1 mi
5:53 AM22 °FIce fog.N/A96%30.83 "Hg1 mi
4:53 AM22 °FIce fog.No wind92%30.83 "Hg1 mi
3:53 AM21 °FIce fog.No wind96%30.83 "Hg1 mi
3:03 AM21 °FIce fog.6 mph92%30.68 "Hg2 mi
Weather by CustomWeather, © 2016

See weather overviewHow to use our weather pages